Notices

What's New in latest Release from April 7th, 2021:

- Updated Glossary, including Speed of Maximum Gust, and Total Hourly Precipitation

- Updated national and regional climate services offices contacts and prices information

- Addition of station inventory lists for 1981-2010, 1971-2000, and 1961-1990 Normals.

If you haven't already, please take our survey and provide feedback about our website: https://eccc.sondage-survey.ca/f/LanguageSelection.aspx?s=442ca660-fcf1-47c0-95a9-59707d6fd709

Hourly Data Report for February 25, 2017

TORONTO INTL A
ONTARIO

43°40'36.000" N
79°37'50.000" W
173.40 m
6158731
71624
YYZ

Download Data

Hourly Data (February 2017)
Hourly Data Report for February 25, 2017
TIME
LST
Temp Definition
°C
Dew Point Definition
°C
Rel Hum Definition
%
Precip. Amount Definition
mm

Wind Dir Definition
10's deg

Wind Spd Definition
km/h
Visibility Definition
km
Stn Press Definition
kPa
Hmdx Definition


Wind Chill Definition


Weather Definition


00:00 3.0 2.6 97   33 3 0.6 98.08     Thunderstorms,Rain Showers,Fog
01:00 3.2 2.8 97   14 4 4.8 97.88     Rain,Fog
02:00 3.1 2.7 97   16 16 4.8 97.97     Rain,Fog
03:00 3.3 2.9 97   12 9 4.8 97.86     Moderate Rain,Fog
04:00 4.0 3.6 97   13 13 4.8 97.73     Rain,Fog
05:00 4.2 3.8 97   16 9 3.2 97.67     Rain,Fog
06:00 4.2 3.8 97   13 8 0.4 97.63     Fog
07:00 4.9 4.5 97   36 3 0.4 97.59     Fog
08:00 5.9 5.5 97   17 10 0.2 97.58     Fog
09:00 6.0 5.6 97   28 19 9.7 97.65     Fog
10:00 6.0 5.4 96   27 18 24.1 97.71     Cloudy
11:00 6.8 1.5 69   26 30 24.1 97.73     LegendNANA
12:00 7.2 0.9 64   24 24 24.1 97.77     LegendNANA
13:00 7.1 0.3 62   28 37 24.1 97.70     Cloudy
14:00 6.6 -1.3 57   25 42 24.1 97.77     LegendNANA
15:00 3.5 -2.7 64   26 43 24.1 97.95     LegendNANA
16:00 2.5 -4.9 58   26 44 24.1 97.99     Mostly Cloudy
17:00 1.6 -6.0 57   28 39 24.1 98.09     LegendNANA
18:00 0.9 -6.2 59   27 41 24.1 98.17     LegendNANA
19:00 0.3 -6.6 60   28 48 24.1 98.32     Cloudy
20:00 -0.7 -6.5 65   28 45 17.7 98.49   -9 Snow
21:00 -1.6 -5.8 73   29 39 24.1 98.69   -9 LegendNANA
22:00 -1.7 -7.2 66   27 35 24.1 98.77   -9 Cloudy
23:00 -2.0 -7.1 68   27 28 24.1 98.85   -9 LegendNANA

Notes on Data Quality.

Legend

  • E = Estimated
  • M = Missing
  • NA = Not Available*
  • [empty] = Indicates an unobserved value
Date modified: